EN

Hourly Weather Aavasaksa

Today, 13 June, Sunday

Time Temperature Precipitation Wind Pressure Humidity
00:00 +12°C° 0 mm 2 mps 740 mmHg 96%
01:00 +10°C° 0 mm 2 mps 741 mmHg 95%
02:00 +10°C° 0 mm 2 mps 741 mmHg 94%
03:00 +10°C° 0 mm 2 mps 741 mmHg 93%
04:00 +10°C° 0 mm 2 mps 741 mmHg 91%
05:00 +10°C° 0 mm 2 mps 742 mmHg 89%
06:00 +12°C° 0 mm 1 mps 742 mmHg 82%
07:00 +13°C° 0 mm 1 mps 742 mmHg 75%
08:00 +14°C° 0 mm 1 mps 742 mmHg 68%
09:00 +15°C° 0.3 mm 2 mps 742 mmHg 66%
10:00 +15°C° 0.3 mm 2 mps 743 mmHg 65%
11:00 +16°C° 0.3 mm 3 mps 743 mmHg 63%
12:00 +16°C° 0.5 mm 3 mps 743 mmHg 60%
13:00 +17°C° 0.5 mm 4 mps 744 mmHg 57%
14:00 +17°C° 0.5 mm 4 mps 744 mmHg 54%
15:00 +17°C° 0.1 mm 4 mps 744 mmHg 49%
16:00 +18°C° 0.1 mm 4 mps 744 mmHg 44%
17:00 +18°C° 0.1 mm 4 mps 745 mmHg 39%
18:00 +17°C° 0 mm 3 mps 745 mmHg 41%
19:00 +17°C° 0 mm 3 mps 745 mmHg 43%
20:00 +17°C° 0 mm 3 mps 745 mmHg 45%
21:00 +14°C° 0 mm 3 mps 746 mmHg 49%
22:00 +12°C° 0 mm 3 mps 746 mmHg 53%
23:00 +10°C° 0 mm 3 mps 747 mmHg 57%

Tomorrow, 14 June, Monday

Time Temperature Precipitation Wind Pressure Humidity
00:00 +9°C° 0 mm 2 mps 747 mmHg 60%
01:00 +8°C° 0 mm 2 mps 747 mmHg 62%
02:00 +8°C° 0 mm 1 mps 747 mmHg 64%
03:00 +7°C° 0 mm 2 mps 747 mmHg 63%
04:00 +8°C° 0 mm 2 mps 748 mmHg 61%
05:00 +8°C° 0 mm 2 mps 748 mmHg 59%
06:00 +10°C° 0 mm 3 mps 748 mmHg 54%
07:00 +11°C° 0 mm 3 mps 748 mmHg 48%
08:00 +12°C° 0 mm 3 mps 748 mmHg 43%
09:00 +13°C° 0 mm 4 mps 748 mmHg 43%
10:00 +14°C° 0 mm 4 mps 747 mmHg 43%
11:00 +15°C° 0 mm 4 mps 747 mmHg 43%
12:00 +15°C° 0 mm 4 mps 747 mmHg 48%
13:00 +15°C° 0 mm 4 mps 747 mmHg 53%
14:00 +15°C° 0 mm 4 mps 747 mmHg 58%
15:00 +14°C° 0.1 mm 4 mps 747 mmHg 60%
16:00 +14°C° 0.1 mm 5 mps 746 mmHg 61%
17:00 +14°C° 0.1 mm 5 mps 746 mmHg 62%
18:00 +14°C° 0 mm 4 mps 746 mmHg 64%
19:00 +13°C° 0 mm 4 mps 745 mmHg 65%
20:00 +12°C° 0 mm 3 mps 745 mmHg 67%
21:00 +11°C° 0.3 mm 3 mps 744 mmHg 75%
22:00 +10°C° 0.3 mm 3 mps 743 mmHg 83%
23:00 +10°C° 0.3 mm 3 mps 742 mmHg 91%

Day after tomorrow, 15 June, Tuesday

Time Temperature Precipitation Wind Pressure Humidity
00:00 +10°C° 3.8 mm 3 mps 740 mmHg 94%
01:00 +10°C° 3.8 mm 4 mps 738 mmHg 96%
02:00 +10°C° 3.8 mm 4 mps 736 mmHg 98%
03:00 +11°C° 3 mm 4 mps 735 mmHg 98%
04:00 +10°C° 3 mm 5 mps 734 mmHg 97%
05:00 +10°C° 3 mm 5 mps 733 mmHg 97%
06:00 +11°C° 0.5 mm 4 mps 733 mmHg 97%
07:00 +10°C° 0.5 mm 4 mps 733 mmHg 96%
08:00 +10°C° 0.5 mm 3 mps 733 mmHg 96%
09:00 +8°C° 0.5 mm 5 mps 734 mmHg 94%
10:00 +8°C° 0.5 mm 6 mps 734 mmHg 93%
11:00 +6°C° 0.5 mm 7 mps 735 mmHg 92%
12:00 +8°C° 0.2 mm 7 mps 737 mmHg 88%
13:00 +9°C° 0.2 mm 6 mps 738 mmHg 84%
14:00 +9°C° 0.2 mm 5 mps 740 mmHg 81%
15:00 +11°C° 0.4 mm 4 mps 740 mmHg 78%
16:00 +12°C° 0.4 mm 3 mps 741 mmHg 76%
17:00 +14°C° 0.4 mm 2 mps 741 mmHg 73%
18:00 +14°C° 0.6 mm 2 mps 742 mmHg 76%
19:00 +13°C° 0.6 mm 2 mps 742 mmHg 79%
20:00 +12°C° 0.6 mm 1 mps 743 mmHg 82%
21:00 +11°C° 0.3 mm 1 mps 744 mmHg 86%
22:00 +10°C° 0.3 mm 1 mps 745 mmHg 89%
23:00 +9°C° 0.3 mm 1 mps 746 mmHg 93%

16 June, Wednesday

Time Temperature Precipitation Wind Pressure Humidity
00:00 +8°C° 0 mm 1 mps 746 mmHg 93%
01:00 +8°C° 0 mm 1 mps 747 mmHg 93%
02:00 +7°C° 0 mm 1 mps 748 mmHg 93%
03:00 +8°C° 0 mm 1 mps 748 mmHg 91%
04:00 +8°C° 0 mm 1 mps 749 mmHg 89%
05:00 +9°C° 0 mm 1 mps 750 mmHg 87%
06:00 +10°C° 0 mm 1 mps 750 mmHg 80%
07:00 +10°C° 0 mm 1 mps 750 mmHg 74%
08:00 +10°C° 0 mm 2 mps 751 mmHg 67%
09:00 +12°C° 0.1 mm 2 mps 751 mmHg 58%
10:00 +12°C° 0.1 mm 3 mps 751 mmHg 49%
11:00 +13°C° 0.1 mm 3 mps 751 mmHg 40%
12:00 +14°C° 0 mm 3 mps 751 mmHg 37%
13:00 +14°C° 0 mm 4 mps 752 mmHg 34%
14:00 +15°C° 0 mm 4 mps 752 mmHg 31%
15:00 +15°C° 0 mm 4 mps 752 mmHg 31%
16:00 +15°C° 0 mm 4 mps 752 mmHg 31%
17:00 +16°C° 0 mm 3 mps 752 mmHg 31%
18:00 +16°C° 0 mm 3 mps 752 mmHg 38%
19:00 +14°C° 0 mm 3 mps 753 mmHg 45%
20:00 +14°C° 0 mm 2 mps 753 mmHg 52%
21:00 +12°C° 0 mm 2 mps 753 mmHg 61%
22:00 +10°C° 0 mm 2 mps 754 mmHg 69%
23:00 +8°C° 0 mm 2 mps 754 mmHg 78%

17 June, Thursday

Time Temperature Precipitation Wind Pressure Humidity
00:00 +8°C° 0 mm 2 mps 754 mmHg 77%
01:00 +7°C° 0 mm 2 mps 754 mmHg 77%
02:00 +7°C° 0 mm 2 mps 754 mmHg 76%
03:00 +8°C° 0 mm 2 mps 754 mmHg 75%
04:00 +9°C° 0 mm 2 mps 754 mmHg 74%
05:00 +11°C° 0 mm 3 mps 754 mmHg 73%
06:00 +11°C° 0 mm 3 mps 753 mmHg 74%
07:00 +12°C° 0 mm 4 mps 753 mmHg 75%
08:00 +12°C° 0 mm 4 mps 753 mmHg 76%
09:00 +11°C° 0.1 mm 4 mps 753 mmHg 81%
10:00 +11°C° 0.1 mm 3 mps 754 mmHg 85%
11:00 +10°C° 0.1 mm 3 mps 754 mmHg 89%
12:00 +12°C° 0 mm 3 mps 753 mmHg 79%
13:00 +16°C° 0 mm 3 mps 753 mmHg 69%
14:00 +18°C° 0 mm 3 mps 753 mmHg 59%
15:00 +19°C° 0 mm 3 mps 753 mmHg 58%
16:00 +19°C° 0 mm 2 mps 752 mmHg 56%
17:00 +20°C° 0 mm 2 mps 752 mmHg 55%
18:00 +19°C° 0 mm 2 mps 752 mmHg 62%
19:00 +18°C° 0 mm 2 mps 752 mmHg 69%
20:00 +17°C° 0 mm 2 mps 752 mmHg 75%
21:00 +15°C° 0 mm 2 mps 753 mmHg 80%
22:00 +14°C° 0 mm 2 mps 753 mmHg 85%
23:00 +13°C° 0 mm 1 mps 753 mmHg 90%

18 June, Friday

Time Temperature Precipitation Wind Pressure Humidity
00:00 +12°C° 0 mm 1 mps 753 mmHg 90%
01:00 +12°C° 0 mm 1 mps 752 mmHg 91%
02:00 +12°C° 0 mm 1 mps 752 mmHg 91%
03:00 +12°C° 0 mm 1 mps 752 mmHg 90%
04:00 +12°C° 0 mm 1 mps 751 mmHg 89%
05:00 +13°C° 0 mm 1 mps 751 mmHg 88%
06:00 +13°C° 0.4 mm 2 mps 750 mmHg 88%
07:00 +13°C° 0.4 mm 2 mps 750 mmHg 88%
08:00 +13°C° 0.4 mm 2 mps 749 mmHg 88%
09:00 +12°C° 0.1 mm 3 mps 749 mmHg 89%
10:00 +12°C° 0.1 mm 3 mps 748 mmHg 89%
11:00 +12°C° 0.1 mm 3 mps 748 mmHg 90%
12:00 +12°C° 0.1 mm 3 mps 747 mmHg 91%
13:00 +12°C° 0.1 mm 3 mps 747 mmHg 91%
14:00 +13°C° 0.1 mm 3 mps 747 mmHg 92%
15:00 +13°C° 0.2 mm 4 mps 747 mmHg 89%
16:00 +13°C° 0.2 mm 4 mps 748 mmHg 86%
17:00 +13°C° 0.2 mm 4 mps 749 mmHg 84%
18:00 +13°C° 0.1 mm 4 mps 750 mmHg 79%
19:00 +13°C° 0.1 mm 5 mps 751 mmHg 73%
20:00 +13°C° 0.1 mm 5 mps 752 mmHg 68%
21:00 +12°C° 0 mm 4 mps 753 mmHg 67%
22:00 +11°C° 0 mm 4 mps 754 mmHg 67%
23:00 +10°C° 0 mm 4 mps 755 mmHg 66%
Show more